FW7086 Weather Reports


Display with metric or nautical units.
time (UTC)temp
F
wind
direction
speed
MPH
gust
MPH
rain 1hr
in
rain 24hr
in
rain mn
in
humidity
%
barometer
mb
20260904172314 84 25 2.0 2.0 0.00 0.00 0.00 69 1018.3
20260904171809 84 82 2.0 2.0 0.00 0.00 0.00 68 1018.3
20260904171305 84 153 3.0 7.0 0.00 0.00 0.00 68 1018.0
20260904170801 83 55 2.0 2.0 0.00 0.00 0.00 71 1017.9
20260904170257 84 38 6.0 8.0 0.00 0.00 0.00 70 1018.1
20260904165756 83 140 4.0 8.0 0.00 0.00 0.00 72 1018.2
20260904165250 82 71 8.0 15.0 0.00 0.00 0.00 71 1018.0
20260904164750 83 32 5.0 7.0 0.00 0.00 0.00 71 1018.2
20260904164245 82 25 1.0 3.0 0.00 0.00 0.00 73 1018.2
20260904163741 82 96 1.0 2.0 0.00 0.00 0.00 74 1018.3
20260904163236 82 69 1.0 2.0 0.00 0.00 0.00 74 1018.6
20260904162735 81 98 9.0 13.0 0.00 0.00 0.00 73 1018.4
20260904162231 81 66 5.0 10.0 0.00 0.00 0.00 73 1018.5
20260904161727 81 35 5.0 6.0 0.00 0.00 0.00 73 1018.5
20260904161226 81 88 4.0 8.0 0.00 0.00 0.00 74 1018.6
20260904160722 81 42 7.0 13.0 0.00 0.00 0.00 75 1018.6
20260904160218 81 52 3.0 6.0 0.00 0.00 0.00 75 1018.4
20260904155717 81 104 4.0 8.0 0.00 0.00 0.00 75 1018.6
20260904155217 81 58 4.0 7.0 0.00 0.00 0.00 75 1018.7
20260904154715 80 18 5.0 7.0 0.00 0.00 0.00 77 1018.6
20260904154210 81 47 2.0 2.0 0.00 0.00 0.00 77 1018.3
20260904153706 81 66 6.0 9.0 0.00 0.00 0.00 77 1018.2
20260904153201 81 41 3.0 6.0 0.00 0.00 0.00 76 1018.3
20260904152657 82 39 3.0 7.0 0.00 0.00 0.00 75 1017.7
20260904152152 82 71 8.0 10.0 0.00 0.00 0.00 76 1017.7
20260904151647 83 354 2.0 2.0 0.00 0.00 0.00 77 1017.5
20260904151146 82 79 2.0 4.0 0.00 0.00 0.00 78 1017.1
20260904150642 82 70 7.0 11.0 0.00 0.00 0.00 78 1017.3
20260904150138 83 90 2.0 3.0 0.00 0.00 0.00 77 1017.2
20260904145636 82 128 1.0 2.0 0.00 0.00 0.00 79 1017.3
20260904145131 81 70 4.0 4.0 0.00 0.00 0.00 82 1017.2
20260904144627 81 76 2.0 4.0 0.00 0.00 0.00 82 1017.3
20260904144122 81 67 2.0 3.0 0.00 0.00 0.00 82 1017.3
20260904143618 81 52 2.0 3.0 0.00 0.00 0.00 83 1017.3
20260904143114 82 68 5.0 8.0 0.00 0.00 0.00 81 1017.1
20260904142611 81 44 2.0 3.0 0.00 0.00 0.00 81 1017.2
20260904142111 82 32 5.0 8.0 0.00 0.00 0.00 81 1017.0
20260904141606 82 29 2.0 2.0 0.00 0.00 0.00 81 1016.5
20260904141102 83 40 3.0 3.0 0.00 0.00 0.00 79 1016.8
20260904140557 83 23 2.0 2.0 0.00 0.00 0.00 79 1016.8
20260904140051 82 43 2.0 2.0 0.00 0.00 0.00 81 1016.8
20260904135551 82 345 2.0 3.0 0.00 0.00 0.00 81 1016.8
20260904135047 81 343 1.0 2.0 0.00 0.00 0.00 82 1016.8
20260904134543 81 41 0.0 1.0 0.00 0.00 0.00 83 1016.7
20260904134036 81 47 0.0 1.0 0.00 0.00 0.00 82 1016.7
20260904133531 81 41 2.0 4.0 0.00 0.00 0.00 83 1016.8
20260904133028 80 15 4.0 6.0 0.00 0.00 0.00 84 1016.4
20260904132528 80 0 1.0 2.0 0.00 0.00 0.00 84 1016.4
20260904132027 81 45 1.0 1.0 0.00 0.00 0.00 84 1016.1
20260904131527 80 325 2.0 2.0 0.00 0.00 0.00 83 1016.3
20260904131023 80 53 1.0 1.0 0.00 0.00 0.00 83 1016.2
20260904130522 80 77 1.0 2.0 0.00 0.00 0.00 84 1016.4
20260904130017 81 70 2.0 2.0 0.00 0.00 0.00 83 1016.1
20260904125514 80 45 1.0 2.0 0.00 0.00 0.00 84 1016.1
20260904125008 80 348 1.0 2.0 0.00 0.00 0.00 83 1016.1
20260904124504 80 65 2.0 3.0 0.00 0.00 0.00 83 1015.9
20260904124000 81 31 1.0 2.0 0.00 0.00 0.00 80 1015.8
20260904123459 80 32 1.0 1.0 0.00 0.00 0.00 80 1015.7
20260904122955 80 39 0.0 0.0 0.00 0.00 0.00 80 1015.7
20260904122455 80 25 0.0 0.0 0.00 0.00 0.00 80 1015.6
20260904121949 80 40 0.0 1.0 0.00 0.00 0.00 80 1015.4
20260904121446 79 29 0.0 0.0 0.00 0.00 0.00 81 1015.4
20260904120942 79 46 0.0 0.0 0.00 0.00 0.00 81 1015.3
20260904120437 78 103 0.0 0.0 0.00 0.00 0.00 82 1015.4
20260904115932 78 23 0.0 0.0 0.00 0.00 0.00 83 1015.2
20260904115428 78 21 0.0 0.0 0.00 0.00 0.00 82 1015.0
20260904114927 78 65 0.0 0.0 0.00 0.00 0.00 82 1014.9
20260904114427 79 76 0.0 0.0 0.00 0.00 0.00 81 1014.7
20260904113923 78 159 1.0 1.0 0.00 0.00 0.00 81 1014.6
20260904113422 78 158 0.0 0.0 0.00 0.00 0.00 82 1014.6
20260904112921 78 147 1.0 1.0 0.00 0.00 0.00 82 1014.5
20260904112418 79 147 0.0 0.0 0.00 0.00 0.00 81 1014.3
20260904111913 79 151 0.0 0.0 0.00 0.00 0.00 80 1014.5
20260904111408 80 149 0.0 0.0 0.00 0.00 0.00 79 1014.3
20260904110904 80 143 0.0 0.0 0.00 0.00 0.00 78 1014.3
20260904110403 80 157 1.0 1.0 0.00 0.00 0.00 78 1014.4
20260904105858 80 100 0.0 0.0 0.00 0.00 0.00 78 1014.5
20260904105353 80 218 0.0 0.0 0.00 0.00 0.00 78 1014.3
20260904104848 80 78 0.0 0.0 0.00 0.00 0.00 79 1014.5
20260904104343 80 328 0.0 0.0 0.00 0.00 0.00 80 1014.1
20260904103841 79 179 2.0 3.0 0.00 0.00 0.00 81 1014.1
20260904103340 79 91 0.0 0.0 0.00 0.00 0.00 82 1014.0
20260904102836 80 91 0.0 0.0 0.00 0.00 0.00 81 1013.9
20260904102332 80 137 0.0 0.0 0.00 0.00 0.00 81 1014.0
20260904101827 80 182 1.0 1.0 0.00 0.00 0.00 81 1013.9
20260904101324 80 163 1.0 1.0 0.00 0.00 0.00 81 1013.9
20260904100819 80 89 0.0 0.0 0.00 0.00 0.00 81 1014.1
20260904100315 80 119 0.0 0.0 0.00 0.00 0.00 80 1013.9
20260904095815 81 153 0.0 1.0 0.00 0.00 0.00 80 1013.9
20260904095310 81 178 1.0 2.0 0.00 0.00 0.00 80 1014.0
20260904094805 80 163 1.0 2.0 0.00 0.00 0.00 81 1013.9
20260904094300 80 158 2.0 3.0 0.00 0.00 0.00 81 1013.8
20260904093757 80 197 3.0 4.0 0.00 0.00 0.00 81 1014.0
20260904093256 80 164 3.0 4.0 0.00 0.00 0.00 81 1014.0
20260904092752 80 172 3.0 4.0 0.00 0.00 0.00 82 1014.0
20260904092249 80 165 1.0 1.0 0.00 0.00 0.00 82 1014.0
20260904091745 80 122 0.0 1.0 0.00 0.00 0.00 83 1014.1
20260904091244 80 179 2.0 2.0 0.00 0.00 0.00 83 1014.1
20260904090740 80 169 2.0 2.0 0.00 0.00 0.00 83 1014.0
20260904090236 80 212 2.0 3.0 0.00 0.00 0.00 83 1014.3
20260904085736 80 181 2.0 2.0 0.00 0.00 0.00 84 1014.4
20260904085231 79 159 1.0 1.0 0.00 0.00 0.00 85 1014.5
20260904084726 79 159 0.0 0.0 0.00 0.00 0.00 87 1014.7
20260904084222 78 151 0.0 0.0 0.00 0.00 0.00 88 1014.7
20260904083718 78 161 0.0 0.0 0.00 0.00 0.00 88 1015.0
20260904083215 78 161 0.0 0.0 0.00 0.00 0.00 88 1014.7
20260904082714 78 162 0.0 0.0 0.00 0.00 0.00 88 1014.8
20260904082210 78 162 0.0 0.0 0.00 0.00 0.00 88 1014.8
20260904081705 78 159 0.0 0.0 0.00 0.00 0.00 88 1014.5
20260904081200 78 157 0.0 0.0 0.00 0.00 0.00 88 1014.6
20260904080656 78 157 0.0 0.0 0.00 0.00 0.00 88 1014.7
20260904080152 79 157 0.0 0.0 0.00 0.00 0.00 87 1014.7
20260904075648 79 155 0.0 0.0 0.00 0.00 0.00 86 1014.5
20260904075143 80 156 0.0 0.0 0.00 0.00 0.00 85 1014.4
20260904074642 80 156 0.0 0.0 0.00 0.00 0.00 85 1014.3
20260904074136 81 159 0.0 0.0 0.00 0.00 0.00 84 1014.2
20260904073632 81 174 2.0 2.0 0.00 0.00 0.00 83 1014.0
20260904073128 81 160 0.0 0.0 0.00 0.00 0.00 83 1014.1
20260904072623 81 137 0.0 1.0 0.00 0.00 0.00 84 1014.1
20260904072119 81 190 2.0 2.0 0.00 0.00 0.00 83 1013.9
20260904071614 81 172 1.0 2.0 0.00 0.00 0.00 83 1013.8
20260904071109 81 201 2.0 3.0 0.00 0.00 0.00 84 1014.0
20260904070608 81 192 3.0 4.0 0.00 0.00 0.00 84 1013.9
20260904065557 80 155 2.0 2.0 0.00 0.00 0.00 85 1014.1
20260904065054 80 161 1.0 1.0 0.00 0.00 0.00 85 1014.3
20260904064550 80 142 2.0 3.0 0.00 0.00 0.00 86 1014.4
20260904064049 80 160 2.0 2.0 0.00 0.00 0.00 85 1014.4
20260904063546 80 146 1.0 1.0 0.00 0.00 0.00 86 1014.4
20260904063041 79 131 0.0 1.0 0.00 0.00 0.00 87 1014.7
20260904062537 79 95 0.0 0.0 0.00 0.00 0.00 87 1014.8
20260904062032 78 67 0.0 0.0 0.00 0.00 0.00 86 1015.0
20260904061528 78 110 0.0 0.0 0.00 0.00 0.00 85 1015.1
20260904061025 78 86 0.0 0.0 0.00 0.00 0.00 86 1015.2
20260904060521 77 34 0.0 0.0 0.00 0.00 0.00 86 1015.4
20260904060016 77 34 0.0 0.0 0.00 0.00 0.00 86 1015.5
20260904055512 77 34 0.0 0.0 0.00 0.00 0.00 86 1015.4
20260904055007 77 34 0.0 0.0 0.00 0.00 0.00 86 1015.5
20260904054502 77 34 0.0 0.0 0.00 0.00 0.00 85 1015.5
20260904053958 77 34 0.0 0.0 0.00 0.00 0.00 85 1015.6
20260904053457 78 34 0.0 0.0 0.00 0.00 0.00 85 1015.6
20260904052953 78 9 0.0 0.0 0.00 0.00 0.00 84 1015.5
20260904052449 78 6 0.0 0.0 0.00 0.00 0.00 84 1015.4
20260904051945 78 6 0.0 0.0 0.00 0.00 0.00 84 1015.5
20260904051442 78 11 0.0 0.0 0.00 0.00 0.00 84 1015.3
20260904050940 78 4 0.0 0.0 0.00 0.00 0.00 84 1015.2
20260904050437 78 2 0.0 0.0 0.00 0.00 0.00 84 1015.3
20260904045937 78 20 0.0 0.0 0.00 0.00 0.00 84 1015.0
20260904045432 78 20 0.0 0.0 0.00 0.00 0.00 83 1015.2
20260904044932 78 20 0.0 0.0 0.00 0.00 0.00 83 1015.3
20260904044428 78 20 0.0 0.0 0.00 0.00 0.00 83 1015.1
20260904043924 78 20 0.0 0.0 0.00 0.00 0.00 82 1015.2
20260904043421 78 20 0.0 0.0 0.00 0.00 0.00 82 1015.1
20260904042916 78 20 0.0 0.0 0.00 0.00 0.00 82 1015.2
20260904042412 79 20 0.0 0.0 0.00 0.00 0.00 81 1015.2
20260904041907 79 23 0.0 0.0 0.00 0.00 0.00 81 1015.3
20260904041403 79 23 0.0 0.0 0.00 0.00 0.00 80 1015.3
20260904040859 79 23 0.0 0.0 0.00 0.00 0.00 79 1015.3
20260904040354 80 33 0.0 0.0 0.00 0.00 0.00 79 1015.4
20260904035850 80 44 0.0 0.0 0.00 0.00 0.00 79 1015.4
20260904035346 80 44 0.0 0.0 0.00 0.00 0.00 78 1015.3
20260904034845 80 53 1.0 1.0 0.00 0.00 0.00 78 1015.4
20260904034341 80 62 0.0 0.0 0.00 0.00 0.00 78 1015.3
20260904033836 80 28 0.0 0.0 0.00 0.00 0.00 78 1015.3
20260904033332 81 5 0.0 0.0 0.00 0.00 0.00 78 1015.3
20260904032829 81 17 0.0 0.0 0.00 0.00 0.00 78 1015.4
20260904032328 81 35 0.0 0.0 0.00 0.00 0.00 78 1015.5
20260904031822 81 28 0.0 0.0 0.00 0.00 0.00 78 1015.4
20260904031318 81 36 0.0 0.0 0.00 0.00 0.00 77 1015.4
20260904030814 81 14 0.0 0.0 0.00 0.00 0.00 77 1015.5
20260904030309 81 22 0.0 0.0 0.00 0.00 0.00 77 1015.4
20260904025805 81 66 0.0 0.0 0.00 0.00 0.00 77 1015.6
20260904025300 81 1 0.0 0.0 0.00 0.00 0.00 76 1015.6
20260904024755 82 17 0.0 0.0 0.00 0.00 0.00 77 1015.6
20260904024250 82 356 1.0 1.0 0.00 0.00 0.00 77 1015.7
20260904023747 81 55 0.0 0.0 0.00 0.00 0.00 77 1015.5
20260904023243 81 66 0.0 0.0 0.00 0.00 0.00 78 1015.3
20260904022742 81 67 0.0 0.0 0.00 0.00 0.00 78 1015.2
20260904022239 81 69 0.0 0.0 0.00 0.00 0.00 79 1015.1
20260904021735 81 88 0.0 0.0 0.00 0.00 0.00 78 1015.0
20260904021235 81 67 0.0 0.0 0.00 0.00 0.00 78 1015.1
20260904020731 80 27 0.0 0.0 0.00 0.00 0.00 79 1015.4
20260904020230 81 27 0.0 0.0 0.00 0.00 0.00 79 1015.3
20260904015729 81 27 0.0 0.0 0.00 0.00 0.00 78 1015.2
20260904015225 81 27 0.0 0.0 0.00 0.00 0.00 78 1015.2
20260904014723 81 27 0.0 0.0 0.00 0.00 0.00 77 1015.2
20260904014218 81 26 0.0 0.0 0.00 0.00 0.00 77 1015.1
20260904013715 81 27 0.0 0.0 0.00 0.00 0.00 76 1015.0
20260904013210 81 27 0.0 0.0 0.00 0.00 0.00 76 1014.9
20260904012706 82 26 0.0 0.0 0.00 0.00 0.00 76 1015.0
20260904012205 82 26 0.0 0.0 0.00 0.00 0.00 76 1015.0
20260904011705 82 49 0.0 0.0 0.00 0.00 0.00 75 1014.9
20260904011200 82 56 0.0 0.0 0.00 0.00 0.00 75 1014.5
20260904010655 82 66 0.0 0.0 0.00 0.00 0.00 74 1014.3
20260904010152 82 52 0.0 0.0 0.00 0.00 0.00 74 1014.3
20260904005647 82 64 0.0 0.0 0.00 0.00 0.00 74 1014.2
20260904005143 82 53 0.0 0.0 0.00 0.00 0.00 74 1014.0
20260904004638 82 36 0.0 0.0 0.00 0.00 0.00 74 1014.0
20260904004137 82 74 0.0 0.0 0.00 0.00 0.00 74 1013.9
20260904003633 82 70 0.0 0.0 0.00 0.00 0.00 74 1013.9
20260904003130 82 119 0.0 0.0 0.00 0.00 0.00 74 1014.1
20260904002625 82 53 0.0 0.0 0.00 0.00 0.00 73 1014.0
20260904002125 82 62 0.0 0.0 0.00 0.00 0.00 74 1014.0
20260904001621 82 72 0.0 0.0 0.00 0.00 0.00 73 1014.2
20260904001119 82 63 1.0 1.0 0.00 0.00 0.00 73 1014.3
20260904000615 83 80 1.0 2.0 0.00 0.00 0.00 74 1014.0
20260904000111 83 66 0.0 0.0 0.00 0.00 0.00 74 1014.1
20260903235610 83 66 0.0 0.0 0.00 0.00 0.00 73 1014.0
20260903235107 83 85 1.0 1.0 0.00 0.00 0.00 73 1014.2
20260903234601 83 86 0.0 0.0 0.00 0.00 0.00 73 1014.2
20260903234057 83 94 0.0 1.0 0.00 0.00 0.00 72 1013.9
20260903233553 84 66 0.0 0.0 0.00 0.00 0.00 72 1014.0
20260903233048 84 155 1.0 2.0 0.00 0.00 0.00 71 1014.1
20260903232543 84 138 1.0 2.0 0.00 0.00 0.00 71 1014.1
20260903232038 84 6 0.0 1.0 0.00 0.00 0.00 70 1014.2
20260903231532 85 53 2.0 2.0 0.00 0.00 0.00 68 1014.4
20260903231027 85 101 3.0 6.0 0.00 0.00 0.00 68 1014.3
20260903230524 86 79 1.0 1.0 0.00 0.00 0.00 65 1014.3
20260903230021 86 118 2.0 3.0 0.00 0.00 0.00 64 1014.4
20260903225520 86 138 2.0 2.0 0.00 0.00 0.00 64 1014.4
20260903225016 86 105 3.0 6.0 0.00 0.00 0.00 64 1014.2
20260903224512 87 107 1.0 1.0 0.00 0.00 0.00 65 1014.5
20260903224008 88 30 5.0 7.0 0.00 0.00 0.00 61 1014.5
20260903223507 88 34 6.0 9.0 0.00 0.00 0.00 60 1014.3
20260903223006 89 2 1.0 3.0 0.00 0.00 0.00 59 1014.5
20260903222501 88 11 0.0 1.0 0.00 0.00 0.00 60 1014.6
20260903222000 88 86 4.0 4.0 0.00 0.00 0.00 59 1014.4
20260903221455 88 51 4.0 6.0 0.00 0.00 0.00 59 1014.6
20260903220952 87 63 5.0 6.0 0.00 0.00 0.00 59 1014.7
20260903220447 88 67 5.0 6.0 0.00 0.00 0.00 58 1014.7
20260903215944 88 55 2.0 2.0 0.00 0.00 0.00 59 1014.7
20260903215441 89 53 2.0 3.0 0.00 0.00 0.00 57 1014.7
20260903214939 88 153 1.0 1.0 0.00 0.00 0.00 58 1014.7
20260903214435 87 87 1.0 1.0 0.00 0.00 0.00 59 1014.7
20260903213935 88 138 5.0 10.0 0.00 0.00 0.00 58 1014.5
20260903213430 89 122 3.0 4.0 0.00 0.00 0.00 56 1014.7
20260903212926 89 66 3.0 4.0 0.00 0.00 0.00 56 1014.8
20260903212422 89 138 5.0 8.0 0.00 0.00 0.00 56 1014.7
20260903211922 90 59 4.0 6.0 0.00 0.00 0.00 56 1014.7
20260903211417 91 80 1.0 2.0 0.00 0.00 0.00 55 1014.5
20260903210913 91 46 0.0 0.0 0.00 0.00 0.00 55 1014.4
20260903210413 90 59 1.0 3.0 0.00 0.00 0.00 55 1014.5
20260903205908 91 90 4.0 6.0 0.00 0.00 0.00 54 1014.5
20260903205408 92 79 3.0 3.0 0.00 0.00 0.00 56 1014.5
20260903204902 92 81 1.0 2.0 0.00 0.00 0.00 55 1014.7
20260903204359 93 15 1.0 1.0 0.00 0.00 0.00 55 1014.7
20260903203854 94 185 1.0 1.0 0.00 0.00 0.00 53 1014.5
20260903203350 93 193 1.0 1.0 0.00 0.00 0.00 56 1014.7
20260903202849 92 249 3.0 3.0 0.00 0.00 0.00 56 1014.7
20260903202346 92 297 1.0 2.0 0.00 0.00 0.00 54 1014.5
20260903201845 92 9 0.0 1.0 0.00 0.00 0.00 57 1014.8
20260903201340 92 188 2.0 2.0 0.00 0.00 0.00 55 1015.0
20260903200839 90 183 2.0 2.0 0.00 0.00 0.00 57 1014.8
20260903200335 90 102 0.0 0.0 0.00 0.00 0.00 58 1015.0
20260903195829 91 141 0.0 0.0 0.00 0.00 0.00 58 1014.9
20260903195326 90 24 1.0 1.0 0.00 0.00 0.00 59 1015.0
20260903194820 89 67 2.0 3.0 0.00 0.00 0.00 60 1015.1
20260903194316 89 72 2.0 3.0 0.00 0.00 0.00 59 1015.1
20260903193812 89 91 0.0 0.0 0.00 0.00 0.00 59 1015.3
20260903193308 89 127 0.0 1.0 0.00 0.00 0.00 59 1015.3
20260903192803 89 211 2.0 3.0 0.00 0.00 0.00 58 1015.4
20260903192258 88 182 4.0 4.0 0.00 0.00 0.00 60 1015.4
20260903191754 89 351 1.0 2.0 0.00 0.00 0.00 60 1015.5
20260903191250 88 77 2.0 3.0 0.00 0.00 0.00 61 1015.6
20260903190744 88 41 0.0 0.0 0.00 0.00 0.00 63 1015.5
20260903190244 87 10 0.0 0.0 0.00 0.00 0.00 61 1015.7
20260903185739 87 193 1.0 2.0 0.00 0.00 0.00 63 1015.6
20260903185239 87 19 1.0 1.0 0.00 0.00 0.00 62 1015.7
20260903184735 86 16 1.0 2.0 0.00 0.00 0.00 63 1016.0
20260903184231 87 68 2.0 6.0 0.00 0.00 0.00 62 1015.9
20260903183727 88 358 0.0 0.0 0.00 0.00 0.00 63 1016.0
20260903183220 86 38 0.0 0.0 0.00 0.00 0.00 66 1016.2
20260903182719 85 345 1.0 1.0 0.00 0.00 0.00 66 1016.1
20260903182215 85 63 1.0 2.0 0.00 0.00 0.00 66 1016.2
20260903181713 85 25 2.0 2.0 0.00 0.00 0.00 67 1016.3
20260903181208 85 71 4.0 4.0 0.00 0.00 0.00 69 1016.2
20260903180704 85 36 1.0 1.0 0.00 0.00 0.00 69 1016.3
20260903180204 84 29 3.0 3.0 0.00 0.00 0.00 68 1016.8
20260903175703 83 345 3.0 4.0 0.00 0.00 0.00 69 1016.7
20260903175203 83 341 5.0 6.0 0.00 0.00 0.00 71 1016.9
20260903174702 83 33 4.0 6.0 0.00 0.00 0.00 71 1016.9
20260903174157 83 39 2.0 3.0 0.00 0.00 0.00 75 1016.9
20260903173652 84 317 4.0 7.0 0.00 0.00 0.00 75 1017.1
20260903173148 83 193 2.0 3.0 0.00 0.00 0.00 75 1017.1
20260903172643 84 3 2.0 3.0 0.00 0.00 0.00 73 1017.1